Location: Austin
(30.3000°N, 97.7500°W)
Time: 23:03:43
(UTC-06:00)

Cosmos 1544 Rocket - Pass Details

Date: 03 December 2025
Orbit: 599 x 622 km, 82.5° (Epoch: 07 December)

Event Time Altitude Azimuth Distance (km) Brightness Sun altitude
Exits shadow 05:44:36 11° 351° (N) 1,949 5.9 -18.5°
Maximum altitude 05:48:54 79° 266° (W) 635 3.4 -17.6°
Drops below altitude 10° 05:53:16 10° 179° (S) 1,972 6.3 -16.7°
Sets 05:55:28 0° 178° (S) 2,870 7.2 -16.2°
